FW8291 Weather Reports


time (UTC)temp
C
wind
direction
speed
KPH
gust
KPH
rain 1hr
cm
rain 24hr
cm
rain mn
cm
humidity
%
barometer
mb
20260503223906 16 319 1.6 6.4 0.00 0.05 0.05 74 1011.8
20260503223406 16 268 3.2 4.8 0.00 0.05 0.05 75 1011.9
20260503222905 16 320 1.6 4.8 0.00 0.05 0.05 74 1011.8
20260503222407 16 345 3.2 4.8 0.00 0.05 0.05 74 1011.9
20260503221906 16 331 1.6 4.8 0.00 0.05 0.05 74 1011.8
20260503221405 16 330 1.6 4.8 0.00 0.05 0.05 75 1011.9
20260503220906 16 223 3.2 4.8 0.00 0.05 0.05 75 1011.8
20260503220855 16 337 3.2 4.8 0.00 0.05 0.05 76 1011.8
20260503215905 16 331 1.6 6.4 0.00 0.05 0.05 76 1011.8
20260503215404 16 340 3.2 6.4 0.00 0.05 0.05 76 1011.8
20260503214906 16 358 0.0 4.8 0.00 0.05 0.05 78 1011.8
20260503214626 16 341 1.6 3.2 0.00 0.05 0.05 77 1011.9
20260503213905 16 336 0.0 4.8 0.00 0.05 0.05 76 1011.9
20260503213404 16 338 1.6 6.4 0.00 0.05 0.05 75 1011.8
20260503212905 16 327 1.6 6.4 0.00 0.05 0.05 74 1011.8
20260503212404 16 344 3.2 4.8 0.00 0.05 0.05 75 1011.8
20260503212127 16 334 1.6 4.8 0.00 0.05 0.05 75 1011.8
20260503211403 16 337 0.0 3.2 0.00 0.05 0.05 76 1011.8
20260503210905 16 326 1.6 3.2 0.00 0.05 0.05 74 1011.9
20260503210403 17 317 1.6 4.8 0.00 0.05 0.05 73 1011.7
20260503205904 17 358 3.2 4.8 0.00 0.05 0.05 73 1011.7
20260503205403 17 283 0.0 3.2 0.00 0.05 0.05 72 1011.8
20260503205345 17 296 0.0 3.2 0.00 0.05 0.05 72 1011.8
20260503204403 17 204 0.0 1.6 0.00 0.05 0.05 73 1011.9
20260503204128 17 261 0.0 4.8 0.00 0.05 0.05 71 1011.9
20260503203402 17 302 0.0 4.8 0.00 0.05 0.05 71 1011.8
20260503202904 17 117 0.0 3.2 0.00 0.05 0.05 73 1011.8
20260503202622 17 192 0.0 4.8 0.00 0.05 0.05 71 1012.0
20260503202127 17 89 0.0 4.8 0.00 0.05 0.05 72 1011.9
20260503201359 17 353 1.6 3.2 0.00 0.05 0.05 73 1011.9
20260503200902 17 343 0.0 4.8 0.00 0.05 0.05 72 1011.8
20260503200359 16 314 1.6 4.8 0.00 0.05 0.05 76 1011.9
20260503195903 16 278 1.6 4.8 0.00 0.05 0.05 76 1012.0
20260503195401 16 252 0.0 4.8 0.00 0.05 0.05 75 1012.0
20260503194903 16 104 0.0 8.0 0.00 0.05 0.05 77 1012.0
20260503194402 16 327 1.6 8.0 0.00 0.05 0.05 78 1011.9
20260503193900 15 343 1.6 4.8 0.00 0.05 0.05 79 1011.9
20260503193359 15 312 1.6 4.8 0.00 0.05 0.05 81 1012.0
20260503192900 15 288 0.0 3.2 0.00 0.05 0.05 82 1011.9
20260503192359 15 159 0.0 3.2 0.00 0.05 0.05 84 1011.9
20260503191901 15 326 0.0 3.2 0.00 0.05 0.05 85 1012.0
20260503191401 14 92 0.0 3.2 0.00 0.05 0.05 85 1012.1
20260503190902 14 324 0.0 3.2 0.00 0.05 0.05 84 1012.1
20260503190400 14 340 0.0 3.2 0.00 0.05 0.05 84 1012.0
20260503185901 15 319 1.6 3.2 0.00 0.05 0.05 83 1012.0
20260503185358 15 317 0.0 4.8 0.00 0.05 0.05 82 1012.0
20260503184859 15 316 0.0 4.8 0.00 0.05 0.05 82 1012.0
20260503184843 15 324 0.0 3.2 0.00 0.05 0.05 82 1012.0
20260503183900 15 262 0.0 1.6 0.00 0.05 0.05 81 1012.0
20260503183358 15 207 0.0 4.8 0.00 0.05 0.05 83 1012.0
20260503182901 15 257 1.6 8.0 0.00 0.05 0.05 84 1011.9
20260503182401 15 59 1.6 8.0 0.00 0.05 0.05 84 1011.9
20260503182127 15 344 0.0 4.8 0.00 0.05 0.05 84 1011.8
20260503181359 15 345 0.0 4.8 0.00 0.05 0.05 83 1011.9
20260503181120 15 334 3.2 3.2 0.00 0.05 0.05 83 1011.9
20260503180359 15 286 1.6 4.8 0.00 0.05 0.05 83 1011.9
20260503175901 15 212 1.6 4.8 0.00 0.05 0.05 85 1011.9
20260503175358 15 343 1.6 3.2 0.00 0.05 0.05 84 1011.9
20260503175120 15 336 1.6 3.2 0.00 0.05 0.05 84 1011.8
20260503174358 15 306 0.0 1.6 0.00 0.05 0.05 83 1011.8
20260503173859 15 348 0.0 1.6 0.00 0.05 0.05 85 1011.8
20260503173622 15 66 0.0 1.6 0.00 0.05 0.05 84 1011.8
20260503172859 15 13 0.0 1.6 0.00 0.05 0.05 85 1011.8
20260503172621 15 251 0.0 1.6 0.00 0.05 0.05 85 1011.7
20260503172122 15 313 0.0 6.4 0.00 0.05 0.05 87 1011.8
20260503171358 15 6 0.0 6.4 0.03 0.05 0.05 87 1011.8
20260503170859 15 38 0.0 1.6 0.03 0.05 0.05 88 1011.9
20260503170358 15 353 0.0 4.8 0.05 0.05 0.05 89 1011.8
20260503150857 12 159 0.0 0.0 0.00 0.00 0.00 90 1011.3
20260503150354 11 21 0.0 0.0 0.00 0.00 0.00 90 1011.2
20260503131334 -17 0.0 0.0 0.00 0.00 0.00 1009.9
20260503130834 -17 0.0 0.0 0.00 0.00 0.00 1009.9
20260503130331 -17 0.0 0.0 0.00 0.00 0.00 1009.7
20260503110822 11 133 0.0 0.0 0.00 0.00 0.00 89 1009.8
20260503110321 11 133 0.0 0.0 0.00 0.00 0.00 90 1009.8
20260503090318 11 128 0.0 0.0 0.00 0.00 0.00 89 1010.3
20260503081318 11 128 0.0 0.0 0.00 0.00 0.00 89 1010.8
20260503080819 11 128 0.0 0.0 0.00 0.00 0.00 89 1010.7
20260503080544 11 128 0.0 0.0 0.00 0.00 0.00 89 1010.8
20260503072816 12 207 0.0 0.0 0.00 0.00 0.00 89 1010.7
20260503072317 12 331 0.0 0.0 0.00 0.00 0.00 89 1010.7
20260503071816 12 245 0.0 1.6 0.00 0.00 0.00 89 1010.7
20260503071316 12 245 0.0 1.6 0.00 0.00 0.00 89 1010.7
20260503070817 12 241 0.0 1.6 0.00 0.00 0.00 89 1010.7
20260503070316 12 237 0.0 1.6 0.00 0.00 0.00 89 1010.8
20260503060314 12 288 0.0 0.0 0.00 0.00 0.00 89 1011.0
20260503055031 12 288 0.0 0.0 0.00 0.00 0.00 89 1011.1
20260503054314 12 319 0.0 0.0 0.00 0.00 0.00 89 1011.2
20260503053815 12 319 0.0 0.0 0.00 0.00 0.00 89 1011.3
20260503053314 12 319 0.0 1.6 0.00 0.00 0.00 89 1011.2
20260503052815 12 319 0.0 1.6 0.00 0.00 0.00 89 1011.3
20260503052754 12 279 0.0 0.0 0.00 0.00 0.00 89 1011.3
20260503052032 12 279 0.0 0.0 0.00 0.00 0.00 89 1011.3
20260503051313 12 281 0.0 0.0 0.00 0.00 0.00 89 1011.3
20260503050815 12 286 0.0 0.0 0.00 0.00 0.00 89 1011.4
20260503050532 12 286 0.0 0.0 0.00 0.00 0.00 89 1011.3
20260503045815 12 286 0.0 1.6 0.00 0.00 0.00 89 1011.3
20260503045313 12 285 0.0 1.6 0.00 0.00 0.00 89 1011.3
20260503045031 12 302 0.0 0.0 0.00 0.00 0.00 89 1011.3
20260503044312 12 264 0.0 0.0 0.00 0.00 0.00 89 1011.3
20260503043814 12 247 0.0 0.0 0.00 0.00 0.00 89 1011.3
20260503043314 12 247 0.0 0.0 0.00 0.00 0.00 89 1011.3
20260503042813 12 247 0.0 0.0 0.00 0.00 0.00 89 1011.3
20260503042314 12 247 0.0 1.6 0.00 0.00 0.00 89 1011.2
20260503042038 12 247 0.0 1.6 0.00 0.00 0.00 89 1011.1
20260503041312 12 259 0.0 1.6 0.00 0.00 0.00 89 1011.1
20260503041034 12 259 0.0 1.6 0.00 0.00 0.00 89 1011.1
20260503040312 12 274 0.0 1.6 0.00 0.00 0.00 89 1011.1
20260503035813 12 274 0.0 0.0 0.00 0.00 0.00 89 1011.0
20260503035312 12 274 0.0 0.0 0.00 0.00 0.00 89 1011.0
20260503034813 12 209 0.0 1.6 0.00 0.00 0.00 89 1011.0
20260503034311 12 209 0.0 1.6 0.00 0.00 0.00 89 1011.0
20260503033813 12 319 0.0 0.0 0.00 0.00 0.00 88 1010.9
20260503033311 12 319 0.0 1.6 0.00 0.00 0.00 88 1010.8
20260503032812 12 319 0.0 3.2 0.00 0.00 0.00 88 1010.8
20260503032311 12 227 0.0 8.0 0.00 0.00 0.00 88 1010.7
20260503031812 12 142 0.0 8.0 0.00 0.00 0.00 88 1010.7
20260503031538 12 306 0.0 0.0 0.00 0.00 0.00 88 1010.6
20260503030812 12 251 0.0 1.6 0.00 0.00 0.00 88 1010.6
20260503030528 12 251 0.0 1.6 0.00 0.00 0.00 87 1010.4
20260503025812 12 259 0.0 1.6 0.00 0.00 0.00 87 1010.4
20260503025310 12 257 0.0 1.6 0.00 0.00 0.00 87 1010.4
20260503024811 12 254 0.0 1.6 0.00 0.00 0.00 87 1010.4
20260503024310 12 247 0.0 1.6 0.00 0.00 0.00 87 1010.4
20260503023811 12 247 0.0 1.6 0.00 0.00 0.00 87 1010.4
20260503023309 12 276 0.0 3.2 0.00 0.00 0.00 87 1010.4
20260503023030 12 274 0.0 3.2 0.00 0.00 0.00 86 1010.4
20260503022309 12 231 0.0 1.6 0.00 0.00 0.00 86 1010.4
20260503022255 12 265 0.0 1.6 0.00 0.00 0.00 87 1010.4
20260503021309 12 329 0.0 1.6 0.00 0.00 0.00 86 1010.5
20260503020810 12 326 0.0 1.6 0.00 0.00 0.00 86 1010.5
20260503020309 12 279 0.0 1.6 0.00 0.00 0.00 86 1010.5
20260503015810 12 319 0.0 1.6 0.00 0.00 0.00 86 1010.5
20260503015309 13 330 0.0 0.0 0.00 0.00 0.00 85 1010.6
20260503015033 13 247 0.0 1.6 0.00 0.00 0.00 85 1010.6
20260503014309 13 268 0.0 1.6 0.00 0.00 0.00 85 1010.6
20260503013809 13 338 0.0 3.2 0.00 0.00 0.00 85 1010.6
20260503013308 13 337 0.0 3.2 0.00 0.00 0.00 85 1010.7
20260503012810 13 345 1.6 3.2 0.00 0.00 0.00 85 1010.7
20260503012308 13 340 0.0 3.2 0.00 0.00 0.00 85 1010.6
20260503011811 13 314 0.0 1.6 0.00 0.00 0.00 84 1010.8
20260503011308 13 329 0.0 3.2 0.00 0.00 0.00 84 1010.8
20260503011036 13 357 0.0 1.6 0.00 0.00 0.00 84 1010.7
20260503010308 13 323 0.0 3.2 0.00 0.00 0.00 84 1010.7
20260503005808 13 338 0.0 3.2 0.00 0.00 0.00 84 1010.8
20260503005307 13 347 1.6 3.2 0.00 0.00 0.00 84 1010.7
20260503005249 13 0 0.0 3.2 0.00 0.00 0.00 84 1010.7
20260503004307 13 309 0.0 3.2 0.00 0.00 0.00 84 1010.9
20260503003808 13 350 0.0 3.2 0.00 0.00 0.00 83 1010.8
20260503003307 13 1 1.6 3.2 0.00 0.00 0.00 83 1010.8
20260503002808 13 298 0.0 3.2 0.00 0.00 0.00 83 1010.7
20260503002307 13 276 1.6 4.8 0.00 0.00 0.00 82 1010.9
20260503001808 13 337 0.0 4.8 0.00 0.00 0.00 83 1010.9
20260503001306 13 348 0.0 3.2 0.00 0.00 0.00 82 1010.9
20260503001027 13 345 0.0 3.2 0.00 0.00 0.00 82 1011.0
20260503000306 13 320 0.0 3.2 0.00 0.00 0.00 82 1011.0
20260503000028 13 272 1.6 3.2 0.00 0.00 0.00 82 1011.0
20260502235533 13 343 1.6 3.2 0.00 0.00 0.00 83 1011.1
20260502234808 13 345 0.0 4.8 0.00 0.00 0.00 82 1011.0
20260502234306 14 314 3.2 4.8 0.00 0.00 0.00 82 1011.1
20260502233807 14 272 0.0 3.2 0.00 0.00 0.00 82 1011.2
20260502233306 14 347 1.6 3.2 0.00 0.00 0.00 81 1011.1
20260502232806 14 316 1.6 3.2 0.00 0.00 0.00 81 1011.2
20260502232305 14 340 0.0 4.8 0.00 0.00 0.00 82 1011.2
20260502231806 14 321 1.6 4.8 0.00 0.00 0.00 81 1011.3
20260502231305 14 330 1.6 3.2 0.00 0.00 0.00 81 1011.4
20260502230806 14 230 0.0 3.2 0.00 0.00 0.00 81 1011.4
20260502230305 14 338 0.0 3.2 0.00 0.00 0.00 81 1011.5
20260502225806 14 321 0.0 3.2 0.00 0.00 0.00 81 1011.6
20260502224806 14 316 0.0 1.6 0.00 0.00 0.00 82 1011.8
20260502224305 14 309 0.0 3.2 0.00 0.00 0.00 81 1011.9